Location: Cortos
(40.7190°N, 4.5893°W)
Time: 09:56:56
(UTC+00:00)

DELTA 2 R/B (1) - Pass Details

Date: 05 July 2020
Orbit: 790 x 802 km, 39.6° (Epoch: 07 August)

Event Time Altitude Azimuth Distance (km) Brightness Sun altitude
Rises 22:18:30 0° 243° (WSW) 3,281 6.8 -20.3°
Reaches altitude 10° 22:21:00 10° 239° (WSW) 2,355 6.0 -20.5°
Maximum altitude 22:26:26 57° 162° (SSE) 935 3.5 -21.1°
Enters shadow 22:29:54 22° 91° (E) 1,671 5.0 -21.4°
